Weather Roundup
Issued by NWS

Home | Current Version | Previous Version | Graphics & Text | Print | Product List | Glossary Off
Versions: 1 2 3 4 5 6 7 8 9 10 11 12 13 14 15 16 17 18 19 20 21 22 23 24 25 26 27 28 29 30 31 32 33 34 35 36 37 38 39 40 41 42 43 44 45 46 47 48 49 50

000
NZUS93 KARX 031859
HRRWXR

CURRENT HOURLY OBSERVATIONS ACROSS
MUCH OF THE UPPER MISSISSIPPI VALLEY
NATIONAL WEATHER SERVICE LA CROSSE WI
200 PM CDT MON AUG 03 2015


...SOUTHEAST MINNESOTA...


CITY           SKY/WX    TMP DP  RH WIND       PRES   REMARKS
ROCHESTER      SUNNY     74  54  49 NW9       29.94F
ROCHESTER/MAYO FAIR      74  45  35 W9G23     29.93S
WINONA         MOSUNNY   77  50  38 NW9G17    29.90S
AUSTIN         SUNNY     75  52  43 NW9G18    29.94F
ALBERT LEA     SUNNY     75  54  46 NW12G17   29.95F
DODGE CENTER   SUNNY     73  48  40 NW16      29.94F
PRESTON        SUNNY     73  52  47 W18       29.94S
OWATONNA       SUNNY     75  48  38 W13G21    29.94F
FARIBAULT      SUNNY     75  54  46 W7G16     29.93F
$$

...ELSEWHERE IN MINNESOTA...


CITY           SKY/WX    TMP DP  RH WIND       PRES   REMARKS
MINNEAPOLIS    MOSUNNY   78  50  37 NW15      29.91S
INTNL FALLS    CLOUDY    65  55  70 NW12G21   29.84S
DULUTH         CLOUDY    67  52  58 NW12      29.86R
RED WING       SUNNY     79  45  29 NW10G20   29.89S
REDWOOD FALLS  SUNNY     79  50  36 NW10G20   29.94F
MANKATO        SUNNY     75  48  38 W15       29.94F
WORTHINGTON    MOSUNNY   77  54  44 NW9       29.99F
FAIRMONT       SUNNY     77  50  38 W13       29.96S
$$

...SOUTHWEST WISCONSIN...


CITY           SKY/WX    TMP DP  RH WIND       PRES   REMARKS
LA CROSSE      SUNNY     81  49  32 NW13      29.88F
PRAIRIE DU CHI SUNNY     80  44  28 W15G21    29.89F
BOSCOBEL       MOSUNNY   82  51  34 W10G18    29.89F
LONE ROCK      NOT AVBL
PLATTEVILLE    SUNNY     78  51  39 W9G22     29.91F
FORT MC COY    MOSUNNY   79  45  29 W9G21     29.88F
VIROQUA        FAIR      75  49  39 W10       29.91F
WIS DELLS      MOSUNNY   77  44  30 NW12G21   29.87F
$$

...ELSEWHERE IN WISCONSIN...


CITY           SKY/WX    TMP DP  RH WIND       PRES   REMARKS
MILWAUKEE      MOSUNNY   79  45  29 W17G29    29.84S
MADISON        MOSUNNY   78  48  34 W14G22    29.87S
GREEN BAY      SUNNY     77  53  43 W14       29.80F
EAU CLAIRE     NOT AVBL
BLACK RVR FLS  FAIR      79  43  28 W16G22    29.87S
MEDFORD        CLOUDY    70  53  55 NW12G17   29.86S
WAUSAU         CLOUDY    74  51  44 NW15G21   29.83R
WIS RAPIDS     MOSUNNY   77  45  32 NW17G24   29.86S
MARSHFIELD     PTSUNNY   74  49  41 NW16G24   29.85S
RICE LAKE      PTSUNNY   72  51  46 W15G21    29.89S
$$

...NORTHEAST IOWA...


CITY           SKY/WX    TMP DP  RH WIND       PRES   REMARKS
DECORAH        SUNNY     75  50  41 VRB7G20   29.92F
MASON CITY     SUNNY     79  55  43 NW14      29.97F
CHARLES CITY   SUNNY     75  55  50 NW16      29.95F
OELWEIN        SUNNY     77  54  44 W15       29.95F
$$

...ELSEWHERE IN IOWA...


CITY           SKY/WX    TMP DP  RH WIND       PRES   REMARKS
DES MOINES     MOSUNNY   82  54  37 N8        29.95S
IOWA CITY      SUNNY     80  53  39 NW8       29.94F
FORT DODGE     SUNNY     79  55  44 NW6       29.98S
$$

...NORTHERN ILLINOIS...


CITY           SKY/WX    TMP DP  RH WIND       PRES   REMARKS
CHICAGO-OHARE  MOSUNNY   80  48  32 NW13      29.86S
CHICAGO-MIDWAY MOSUNNY   83  49  30 NW15      29.85F
MOLINE         SUNNY     82  53  36 NW8       29.91F
ROCKFORD       MOSUNNY   81  50  33 NW9G20    29.89F
PEORIA         SUNNY     83  59  44 N7        29.91S
$$

NOTE: "FAIR" INDICATES FEW OR NO CLOUDS BELOW 12,000 FEET WITH NO
SIGNIFICANT WEATHER AND/OR OBSTRUCTIONS TO VISIBILITY. WIND
SPEEDS ARE IN MILES-PER-HOUR.



USA.gov is the U.S. government's official web portal to all federal, state and local government web resources and services.